Theta_e
311 312 311 311 311 312 314 314 313 314 314 313 312 311 310 309 309 313 314 314 315 314 314 316 315 320 326 328 328 324 324 330 333 336 337 334 337 339 340 342 344 345 343 343 345 345 344 343 342 338 334 332 331 331 333 333 333 333 333 335 335 335 334 335 337 339 339 339 339 339 339 338 338 338 338 338 337 336 336 336 335 335 335 334 333 331
310 311 311 311 313 313 313 314 315 315 314 313 312 310 310 309 310 313 314 314 316 315 314 316 317 322 328 329 329 327 327 330 331 334 337 336 335 336 339 342 343 343 342 343 343 343 343 342 340 336 333 333 331 330 332 333 332 332 333 334 334 332 334 336 338 338 338 338 338 338 337 337 337 336 336 337 337 336 334 335 334 335 335 334 333 330
310 310 311 311 312 314 314 315 316 316 314 313 312 310 309 310 312 313 314 315 315 315 315 316 317 323 329 330 330 330 330 331 331 333 337 339 338 336 338 341 342 342 341 341 340 341 342 339 338 336 335 336 334 334 336 335 333 332 332 332 332 333 336 338 338 338 338 338 337 337 337 338 337 336 336 336 336 335 334 335 335 335 335 334 333 330
310 310 311 311 313 315 316 315 315 315 314 313 312 310 309 310 312 310 313 315 315 316 317 317 319 324 329 330 331 331 331 332 332 333 335 337 339 338 337 339 341 340 342 342 339 340 341 338 337 338 338 338 337 338 338 337 335 334 334 334 334 335 337 338 338 338 337 337 337 336 337 337 337 336 336 335 335 335 335 334 334 335 334 334 333 332
311 310 311 313 314 315 315 314 315 314 313 313 313 311 310 311 311 311 314 315 315 317 319 318 316 320 327 329 331 331 332 333 333 333 335 335 337 337 336 338 338 339 341 341 339 338 339 339 338 338 338 339 340 338 337 337 336 336 335 335 335 336 337 337 336 336 336 336 336 336 336 336 337 336 336 336 336 336 335 335 335 334 335 335 334 333
311 312 313 314 313 313 313 313 314 314 312 312 314 313 312 313 312 313 314 313 312 314 318 318 312 315 325 330 332 332 332 334 333 334 334 334 334 334 335 337 338 339 340 339 336 335 338 339 338 338 339 340 338 336 335 335 335 334 334 335 335 335 336 336 335 335 335 335 335 336 336 336 336 336 336 337 337 337 336 336 336 335 335 335 335 334
312 313 313 312 312 312 313 313 313 314 312 311 313 314 314 314 312 313 313 311 310 311 318 319 312 313 322 328 332 333 333 334 333 333 333 333 334 334 336 336 336 338 337 335 334 335 337 338 337 337 336 337 336 334 333 334 333 334 335 335 335 335 335 335 335 335 335 334 335 335 336 336 336 336 337 337 337 337 337 337 337 337 336 335 334 334
313 314 312 312 312 312 312 312 313 314 312 312 314 314 314 313 312 313 312 310 310 313 317 318 314 312 317 326 332 333 333 334 333 332 331 332 334 335 335 335 334 334 334 333 333 333 333 334 335 334 334 334 334 334 333 333 334 334 334 334 334 334 334 335 334 334 334 334 334 335 335 335 336 336 337 337 337 337 337 337 337 337 337 335 335 334
314 313 312 312 312 312 312 313 313 313 312 313 314 314 313 313 313 313 311 310 312 314 312 312 313 311 315 326 332 333 333 333 333 332 331 333 334 334 334 333 332 332 332 331 330 330 331 332 333 333 334 334 333 333 333 333 334 334 333 333 333 333 334 334 334 334 334 334 334 334 334 335 335 335 335 336 336 336 337 337 337 337 337 336 335 334
313 313 313 312 312 312 312 313 313 313 313 313 313 314 314 314 313 313 312 310 312 313 310 311 311 309 314 324 328 330 333 333 333 331 332 333 333 332 332 331 330 330 329 329 329 331 331 332 332 332 332 332 333 332 332 333 333 333 333 333 333 333 333 333 334 334 334 334 334 334 334 335 335 335 335 335 335 335 336 337 337 338 338 337 335 335
313 313 313 313 313 312 313 313 312 313 313 312 312 313 312 313 314 314 313 311 311 312 311 311 311 310 313 319 325 330 332 332 331 331 333 333 331 330 329 328 328 327 327 327 328 329 329 329 330 331 331 331 332 331 331 332 332 332 332 333 333 333 332 333 333 334 334 335 334 334 335 335 335 335 335 335 335 335 336 337 337 337 337 337 336 335
313 313 313 313 313 313 314 312 311 312 311 311 312 312 311 311 312 312 311 311 312 312 311 311 312 311 312 318 328 332 332 331 331 332 333 332 330 328 327 326 325 325 325 324 324 325 326 326 326 327 328 329 329 330 330 330 331 331 331 332 332 332 332 333 333 334 334 334 335 335 335 335 335 336 335 335 335 335 336 336 337 337 336 336 335 335
313 313 313 313 313 314 314 312 311 311 311 312 311 310 310 310 311 312 311 310 312 312 311 312 312 312 317 325 330 332 332 332 332 332 331 330 328 327 325 324 323 323 323 323 322 322 323 324 324 324 325 326 327 327 327 328 328 329 329 329 330 330 331 331 332 333 333 333 334 334 335 335 335 335 336 335 335 336 336 335 336 336 335 335 335 334
312 312 312 313 313 313 313 312 311 311 311 311 310 310 310 310 312 313 312 310 311 312 312 314 311 313 324 331 330 331 333 331 331 329 328 327 326 325 323 322 321 321 321 321 320 320 321 322 323 323 323 324 324 324 325 325 326 326 326 326 327 328 328 329 330 331 332 332 333 333 333 334 334 335 335 335 335 335 335 335 335 335 335 335 335 334
312 313 313 312 312 313 313 312 312 312 311 311 311 311 310 310 312 312 311 310 311 312 313 314 313 315 325 331 329 331 331 329 328 327 326 325 323 323 322 320 320 320 320 320 319 319 320 321 321 322 322 322 323 323 323 324 324 325 325 324 325 326 326 327 328 328 329 330 331 331 332 333 333 334 334 334 334 334 334 335 335 335 335 335 335 335
311 312 312 311 313 312 312 312 312 312 311 311 311 310 310 310 311 311 313 313 312 312 314 317 321 323 328 330 329 331 331 328 327 326 325 324 323 322 321 320 320 320 319 318 317 318 319 320 320 320 320 320 321 322 322 322 323 323 323 323 324 324 325 325 326 326 327 328 329 330 331 332 332 332 332 332 332 332 333 333 335 335 335 335 334 334
311 311 312 312 312 312 312 313 313 312 311 312 310 309 311 312 312 311 313 316 313 313 317 320 325 330 331 331 330 330 332 329 327 326 325 323 323 321 320 320 319 318 318 317 316 317 318 319 319 319 319 319 320 321 321 321 322 322 322 322 323 323 324 324 324 325 326 327 328 329 329 330 331 331 331 331 331 332 332 332 333 334 334 335 334 334
311 311 312 312 311 312 312 313 313 313 312 311 309 310 312 313 315 312 311 314 312 314 320 321 323 329 329 331 331 331 333 331 327 325 324 322 322 320 319 317 316 316 316 315 315 316 317 317 317 317 318 318 319 319 320 320 320 321 321 321 322 322 323 323 323 324 324 326 327 328 328 329 329 329 330 330 330 331 331 331 332 332 333 334 334 334
312 311 311 312 311 312 312 312 313 312 312 313 311 312 312 311 312 312 311 314 312 314 322 321 322 326 323 326 331 332 334 332 327 325 323 322 321 319 318 316 315 316 315 315 314 315 316 316 316 317 317 317 318 318 318 319 319 320 320 320 320 321 322 322 323 323 324 325 326 326 327 328 328 329 329 330 330 331 331 331 332 332 332 333 334 333
313 312 311 312 312 311 311 312 312 312 312 313 312 312 312 310 311 311 312 313 310 313 321 324 323 322 321 327 332 331 333 331 327 325 323 322 320 319 317 316 316 316 315 315 314 314 315 316 316 316 316 316 316 316 317 317 318 319 319 319 319 320 321 321 322 323 323 324 324 325 326 327 328 329 330 330 331 331 330 331 331 331 332 333 333 333
313 313 312 311 312 312 312 312 312 312 312 312 312 311 311 312 312 312 312 311 310 311 318 324 323 320 323 329 330 330 332 328 325 324 322 320 319 317 316 316 316 315 315 314 313 314 315 315 315 315 315 315 315 316 316 316 317 318 318 318 318 319 320 320 321 322 322 323 323 324 325 326 327 328 329 330 330 330 330 330 331 331 332 332 332 333
313 313 313 312 311 310 311 313 313 314 312 312 313 311 311 312 312 312 312 311 311 310 313 318 319 322 328 330 328 330 330 326 324 323 321 320 318 316 316 316 315 315 314 313 313 314 315 314 314 314 314 314 315 315 315 316 316 317 317 317 318 318 319 319 320 321 321 322 322 323 324 325 326 327 328 329 330 330 330 330 331 331 331 331 331 332
315 314 312 312 312 312 314 315 316 316 314 313 313 312 312 313 312 311 312 312 311 312 313 312 314 324 329 328 329 331 328 325 325 323 321 319 317 316 316 315 314 313 312 312 313 314 314 313 313 313 313 314 315 315 315 315 315 315 316 316 317 317 318 318 319 319 320 321 321 322 323 325 326 327 327 328 329 330 330 329 330 330 330 330 331 331
315 314 312 311 312 315 316 316 316 315 314 313 314 314 314 313 313 312 312 313 312 311 313 311 313 325 328 328 330 329 326 325 324 322 321 318 317 316 315 313 312 311 311 311 312 313 313 313 313 313 313 314 315 315 315 315 315 315 315 316 316 317 317 317 318 318 319 320 321 322 323 324 325 326 327 328 328 329 329 329 330 329 329 330 330 331
314 313 313 313 314 317 316 315 315 314 314 314 315 316 316 314 315 315 314 314 313 312 312 309 313 327 328 326 327 326 324 324 323 321 319 317 316 315 313 312 311 310 310 310 311 311 312 312 313 313 313 314 314 314 314 314 314 315 315 315 315 315 316 316 316 317 318 319 320 321 322 322 323 324 326 327 328 328 328 329 329 329 329 329 330 330
315 316 316 314 314 316 315 315 316 315 314 317 318 317 317 316 315 315 313 312 312 314 313 308 318 329 327 324 324 323 322 322 321 319 316 315 314 313 312 311 310 310 310 310 309 310 311 312 312 313 313 313 313 313 313 314 314 314 315 315 314 314 315 315 315 315 316 317 318 319 320 320 321 322 323 325 327 327 327 328 328 329 329 329 329 330
316 320 322 320 317 316 317 319 321 319 316 316 317 317 317 319 319 316 312 311 313 316 312 312 325 330 327 324 322 321 320 318 317 315 314 313 313 312 311 310 309 310 309 308 308 309 311 312 313 313 312 312 312 312 313 313 313 314 314 314 314 313 313 313 314 315 315 315 316 317 318 318 319 320 321 322 324 326 327 327 327 328 329 329 329 329
315 318 323 325 322 320 321 322 323 321 318 317 318 318 318 321 321 317 314 314 314 313 311 317 330 331 327 325 321 319 318 316 315 313 312 312 311 311 310 309 309 309 308 308 308 308 310 311 312 312 312 312 312 312 312 313 313 313 313 314 314 313 313 313 313 314 315 315 315 316 316 317 318 319 320 321 323 324 326 327 327 327 328 328 328 328
315 317 323 325 322 321 321 321 322 322 321 321 322 322 321 322 322 321 321 324 321 314 314 322 330 331 328 324 320 317 316 314 313 312 311 311 310 310 309 309 308 308 308 308 307 308 309 309 310 311 311 311 311 311 311 312 312 313 313 314 314 313 313 312 313 314 314 314 315 315 315 316 317 319 320 322 323 324 325 326 327 327 327 327 328 328
319 320 323 324 323 322 321 320 321 322 322 323 323 324 323 324 324 324 326 328 326 323 325 329 331 327 324 321 317 314 312 311 310 310 309 309 309 309 308 308 308 307 308 308 308 308 308 309 310 310 310 310 310 310 310 311 311 312 312 313 313 313 312 313 314 314 314 314 314 314 314 315 317 318 320 321 323 324 325 325 326 327 327 327 327 327
321 321 323 324 322 322 322 321 321 322 322 323 322 323 324 324 325 325 326 327 328 330 331 330 327 321 316 314 313 310 310 309 308 308 308 308 308 308 307 307 307 307 307 308 307 307 308 309 309 310 310 310 309 309 309 309 310 311 311 311 312 313 313 314 314 314 314 314 313 313 313 314 316 318 319 320 320 322 323 325 325 326 326 326 326 327
321 321 323 323 321 322 323 322 322 323 322 323 322 322 323 324 324 323 323 325 328 331 330 327 326 320 312 310 310 309 309 309 308 307 307 307 307 307 307 306 306 306 307 307 306 306 308 309 309 309 309 309 309 309 308 308 309 309 309 309 310 312 313 314 314 314 314 313 312 312 312 313 315 317 318 318 318 318 320 322 324 325 326 326 326 326
320 321 322 320 320 323 323 322 324 323 321 322 321 319 320 322 321 321 321 321 324 327 327 324 322 316 310 310 310 309 309 308 307 307 306 306 306 306 306 305 305 306 306 306 305 306 307 308 308 308 308 308 308 308 308 308 308 308 308 308 309 310 312 313 314 314 314 313 311 311 310 311 314 315 316 317 317 316 316 316 319 323 325 325 325 326
321 320 319 317 320 323 322 322 324 323 320 321 317 315 317 320 320 320 319 318 319 320 320 319 315 311 310 310 309 308 307 306 305 305 305 305 305 305 305 304 304 305 305 305 306 306 306 306 307 307 307 307 307 307 307 307 307 307 308 308 308 309 310 312 313 313 313 312 311 310 310 310 312 313 314 315 314 314 313 312 314 318 322 324 324 324
322 320 319 319 320 322 322 321 322 322 321 318 315 315 316 317 318 317 316 315 315 315 315 314 312 311 310 308 307 305 304 304 303 303 303 304 304 304 304 304 304 304 304 304 305 305 305 305 306 306 306 306 306 306 306 306 307 307 307 307 308 308 309 311 312 312 312 311 311 310 309 309 311 312 313 313 313 312 311 310 310 312 315 318 319 320
322 320 320 320 321 322 321 320 321 321 318 315 315 316 316 316 316 317 317 315 314 314 313 312 310 308 306 305 304 303 303 303 303 303 303 303 303 303 303 303 303 303 303 303 304 304 304 304 304 305 305 305 305 305 305 305 306 306 306 307 307 308 309 309 310 310 310 310 310 309 309 309 309 311 312 312 311 310 309 309 308 309 310 312 313 314
321 320 319 320 320 321 321 320 319 319 319 317 316 316 316 317 318 319 318 316 313 313 312 310 307 306 304 304 303 302 303 303 303 302 302 302 302 302 303 303 303 302 303 303 303 303 303 303 303 304 304 305 305 305 305 305 306 306 306 306 306 307 308 309 308 309 309 308 308 309 309 308 309 310 311 310 310 309 309 308 307 307 308 309 311 311
320 320 320 320 319 319 320 320 319 321 321 320 317 315 315 316 316 317 319 317 313 312 311 309 307 306 304 304 303 303 305 307 305 302 302 301 302 302 302 302 302 302 303 303 303 303 303 303 303 303 304 304 304 305 305 305 305 305 305 305 305 305 307 307 308 308 309 307 307 309 309 308 308 309 309 310 310 309 308 308 307 306 306 307 308 308
319 319 318 318 318 319 320 320 320 320 319 318 317 315 314 314 315 316 320 320 314 311 310 309 307 306 304 304 304 305 310 311 306 301 301 301 301 302 302 302 302 302 302 303 303 303 303 303 303 303 303 304 304 304 305 305 305 305 304 304 304 304 305 306 307 308 308 307 307 307 308 308 308 307 308 309 310 309 308 308 308 307 306 305 306 306
319 318 317 316 318 319 318 316 317 318 316 316 316 314 313 313 314 317 321 320 313 310 311 310 308 306 305 305 305 307 311 311 305 301 301 301 301 302 302 302 302 302 302 302 302 302 303 303 303 303 303 303 303 304 304 305 305 304 304 304 303 303 303 305 306 307 307 307 307 307 307 307 307 307 307 308 309 308 308 308 307 307 306 305 305 304
318 317 317 316 317 317 317 316 316 316 314 314 315 313 312 313 316 318 319 317 312 311 311 310 308 307 306 306 307 306 306 306 303 300 301 301 301 302 302 302 302 302 302 302 302 302 302 302 302 302 302 302 303 303 304 304 304 304 304 304 304 303 303 303 305 306 307 307 306 306 305 305 306 307 307 307 307 307 307 307 306 306 306 305 304 303
317 317 316 316 315 315 316 315 315 315 313 312 312 312 312 316 318 317 314 312 311 310 309 308 308 307 306 305 305 303 302 302 301 300 300 301 301 301 301 301 301 301 301 301 302 302 302 302 302 302 302 302 302 303 303 304 304 304 304 304 304 303 302 302 303 305 306 306 306 306 305 304 304 305 306 306 307 307 306 306 305 305 305 305 304 303
315 315 315 315 315 315 315 315 315 315 312 311 313 313 314 316 315 312 311 311 310 309 308 307 306 305 304 303 302 302 301 301 300 300 300 301 301 301 301 301 301 301 301 301 302 302 302 302 302 302 302 302 302 303 303 303 303 303 303 303 303 303 303 302 302 303 305 305 305 305 304 303 303 303 303 304 306 307 306 306 305 304 304 305 304 303
314 314 315 315 314 315 315 315 313 312 311 311 313 313 312 312 311 311 311 311 309 308 307 305 304 303 303 302 301 301 301 300 300 300 300 300 301 301 301 301 301 301 301 301 301 301 301 301 301 301 302 302 302 302 302 302 302 302 303 303 302 302 303 302 302 302 303 304 305 305 304 303 301 301 301 302 303 304 305 305 305 304 304 304 303 303
312 311 313 313 311 312 313 311 307 307 309 309 310 310 310 309 310 311 311 310 308 307 306 304 303 303 302 302 301 301 300 300 300 300 300 300 301 301 301 301 300 301 301 301 301 301 301 301 301 301 301 301 301 301 301 301 301 302 302 302 302 302 302 302 302 301 302 303 304 304 303 302 301 300 301 301 302 302 303 303 303 303 303 302 302 302
309 308 311 311 309 308 309 307 306 307 308 307 307 308 308 308 309 310 310 309 308 307 305 304 303 302 301 301 301 301 300 300 300 300 300 300 301 301 301 301 300 300 301 301 301 301 301 300 300 300 300 300 300 300 300 300 300 301 301 302 302 302 302 302 302 301 301 301 302 303 302 302 301 301 301 301 301 301 301 301 301 302 302 302 301 301
307 309 311 311 310 310 310 307 307 308 307 306 306 306 306 308 308 308 308 308 307 306 305 303 302 302 302 301 301 300 300 300 300 300 300 300 301 301 301 301 300 300 301 301 300 300 299 299 299 298 299 299 300 300 299 300 300 300 301 301 302 302 302 301 302 302 301 301 300 301 302 301 300 300 300 300 300 300 299 300 300 301 301 301 301 300
309 309 311 310 310 311 309 306 306 306 305 305 306 306 305 306 307 307 306 306 305 305 304 303 303 302 302 301 300 300 300 300 300 300 300 300 301 301 301 301 300 300 300 300 300 300 299 299 298 298 299 299 299 299 299 299 300 300 300 301 301 301 301 301 301 301 301 301 301 300 300 300 300 299 299 298 298 299 298 298 298 298 298 299 299 299
309 310 310 309 309 308 307 305 305 305 305 305 305 304 304 305 305 305 305 305 304 303 303 303 302 302 301 300 300 300 299 300 300 301 300 301 301 301 301 301 300 300 300 300 300 300 300 299 299 299 299 299 299 299 299 299 299 300 300 300 300 301 301 301 301 301 301 301 301 301 300 300 300 299 299 298 297 297 297 297 297 297 297 297 298 298
309 310 309 308 308 308 308 306 307 308 308 305 304 303 304 304 304 305 304 304 303 302 301 301 301 301 301 301 301 301 300 300 301 301 301 301 301 301 301 300 300 300 300 300 300 300 300 300 299 299 299 299 299 299 299 299 299 299 299 300 300 300 300 300 301 301 300 301 301 301 301 301 300 300 299 299 298 297 296 296 296 297 297 297 298 298
308 309 309 309 310 310 308 306 306 308 306 304 303 303 303 303 304 303 303 303 302 302 302 301 300 300 301 301 301 301 301 301 301 301 301 301 301 301 301 300 300 300 300 300 300 300 300 300 300 299 299 299 299 299 298 298 299 299 299 299 299 300 300 300 300 300 300 300 300 300 300 301 301 300 300 300 300 299 298 297 296 296 297 297 298 298
Wind_Speed
10 9 10 11 12 15 15 16 13 6 7 11 11 10 9 10 10 8 9 7 6 9 11 11 9 6 8 6 6 4 2 1 2 2 4 5 5 5 5 4 3 4 3 6 9 8 6 7 10 10 10 11 9 5 6 9 9 6 6 10 7 4 5 4 4 7 11 12 12 12 11 13 14 12 11 11 10 12 12 9 8 8 10 11 11 11
11 11 12 14 14 15 17 16 11 6 7 10 10 10 9 10 10 10 9 8 4 6 7 8 6 6 7 6 6 4 2 1 2 2 3 4 5 5 5 4 3 3 3 6 9 9 9 10 12 12 9 9 11 8 6 9 9 5 7 10 9 6 6 4 3 6 11 11 10 9 8 10 11 12 11 11 12 14 14 11 10 10 10 11 12 12
11 11 14 17 15 14 15 14 12 9 9 9 8 9 9 8 9 10 8 7 3 5 6 10 7 6 7 6 6 4 3 3 3 2 2 2 2 3 3 3 3 3 3 5 7 9 12 14 12 11 8 7 9 9 9 11 10 8 8 9 9 8 7 5 4 6 9 8 8 8 7 8 8 9 9 9 10 12 13 12 10 10 12 12 12 12
9 11 15 15 13 14 14 14 14 11 9 9 8 8 9 10 9 8 8 7 3 2 6 11 7 5 6 6 6 5 4 3 3 2 3 3 3 3 4 4 4 4 5 6 8 10 13 14 11 9 7 6 5 5 8 9 7 5 5 6 7 7 6 4 3 4 6 5 6 6 6 7 8 8 7 7 7 8 11 11 9 10 11 13 13 12
10 10 13 14 14 16 14 14 16 11 9 10 10 9 9 12 10 6 9 9 5 3 7 10 7 5 6 6 6 5 4 5 5 5 6 6 6 6 7 8 8 7 6 9 11 11 12 12 11 9 6 5 6 8 8 7 4 3 3 5 5 5 6 4 3 2 3 6 6 6 7 7 8 8 8 7 5 5 8 9 9 9 10 12 13 12
11 10 13 15 16 17 16 15 16 13 9 9 11 10 7 12 12 7 12 11 6 6 9 10 7 6 7 6 6 5 5 6 6 7 8 8 7 7 8 9 9 9 10 12 13 11 10 11 12 9 6 6 9 10 9 8 7 7 7 7 6 5 5 4 2 0 3 5 5 5 7 8 8 8 8 7 5 5 7 8 8 8 9 10 12 12
9 12 14 16 16 18 16 14 17 16 10 8 11 10 5 8 10 9 11 11 6 5 9 10 7 5 8 7 6 7 7 9 8 9 9 8 8 9 10 10 10 11 12 13 12 11 10 11 12 10 7 7 9 9 9 9 10 10 9 8 6 6 5 4 3 2 2 3 2 3 6 8 9 9 8 7 6 6 7 7 6 7 8 9 11 12
9 15 16 18 18 16 14 13 16 17 10 6 12 13 9 7 9 9 10 9 5 4 7 10 9 5 7 7 8 8 9 10 9 9 9 8 10 11 11 12 12 12 12 11 11 11 12 12 12 10 9 9 10 10 10 10 10 9 8 7 5 5 4 4 4 2 1 1 2 3 5 7 8 9 9 7 6 6 6 6 6 6 7 8 9 12
12 16 16 18 17 13 13 12 14 18 11 5 11 14 11 9 9 9 9 8 4 3 7 11 11 7 6 8 8 9 9 10 10 10 9 9 11 12 12 13 13 13 13 12 11 11 12 12 12 11 11 11 11 11 11 11 11 9 8 7 6 4 4 3 2 2 1 1 2 3 6 7 9 9 9 9 8 7 6 6 6 6 7 7 9 12
12 16 17 18 15 12 13 12 14 16 9 6 10 10 8 8 8 7 7 7 5 6 8 12 13 9 5 9 8 9 9 9 10 9 9 11 12 12 12 13 13 13 13 13 12 13 13 13 13 13 12 12 13 12 11 11 11 10 9 8 7 6 5 4 3 3 2 2 3 5 7 9 10 10 10 9 9 8 7 7 7 7 8 8 9 10
10 11 14 15 13 12 12 10 13 14 6 6 9 9 7 7 6 5 6 6 5 8 10 13 17 12 6 9 8 6 7 8 9 9 10 12 12 11 11 12 12 12 11 11 12 14 15 15 15 14 13 13 14 13 13 12 12 11 11 9 8 7 7 5 5 5 5 5 6 7 8 10 10 10 10 10 9 9 8 8 8 7 8 9 10 10
11 10 10 10 10 11 12 10 9 10 7 7 9 8 8 7 6 6 6 6 6 8 10 12 15 13 8 7 7 7 7 8 9 10 12 12 11 11 11 11 11 10 11 11 11 12 13 15 15 15 14 14 14 14 14 14 13 12 12 11 9 9 8 7 7 7 7 7 7 9 10 12 11 9 10 9 9 9 9 10 9 8 8 9 11 12
11 12 12 10 9 10 12 10 8 8 8 9 8 8 9 8 7 8 9 8 8 7 7 11 12 10 3 7 10 11 10 9 10 11 13 13 11 11 10 10 10 9 10 11 10 10 10 12 13 13 13 13 14 15 14 14 13 11 11 11 10 10 10 9 8 9 9 8 8 9 11 11 10 9 9 9 9 9 10 10 10 10 10 11 13 15
9 12 15 13 9 11 14 11 9 9 10 10 9 10 9 8 9 10 9 9 9 5 5 8 10 8 5 8 11 12 11 12 13 13 13 13 12 11 10 10 10 10 10 10 9 9 9 11 12 13 13 13 14 14 14 13 12 11 11 11 10 10 9 9 9 9 9 9 9 9 10 11 10 9 9 9 10 11 11 11 11 12 11 13 15 15
11 10 13 14 10 13 15 12 11 11 10 11 10 9 10 8 8 9 8 10 11 8 6 6 7 6 6 8 10 12 13 13 12 13 13 12 11 11 10 10 10 10 9 9 9 10 11 12 12 13 13 13 13 13 13 12 11 11 10 10 10 10 9 9 9 9 9 9 9 9 10 11 11 10 10 10 11 11 13 13 13 14 13 14 15 14
12 8 13 15 9 15 18 13 12 12 9 9 9 10 10 9 8 5 2 3 6 8 7 5 2 2 4 7 9 11 13 13 12 12 12 11 11 10 10 10 9 9 9 9 9 9 11 13 13 13 13 13 13 13 12 11 11 11 10 10 10 10 10 10 10 10 10 10 9 10 10 11 12 12 11 11 11 11 13 14 14 15 15 15 15 15
10 7 15 16 9 15 19 13 13 12 9 8 10 11 7 5 6 5 3 3 4 7 7 5 4 5 5 6 9 11 13 13 12 11 11 10 10 10 9 8 8 9 9 9 9 9 11 13 13 13 12 13 13 13 12 12 12 11 12 12 12 12 12 12 12 11 11 11 11 11 11 11 12 13 13 13 13 11 13 13 13 14 14 14 15 14
8 6 13 17 12 13 14 13 14 12 8 7 10 11 7 1 4 6 6 5 7 8 5 6 8 8 7 6 9 13 14 13 12 12 12 10 10 10 9 8 8 8 8 9 9 9 11 12 13 13 12 13 12 12 12 12 12 12 13 13 13 14 13 13 12 12 12 12 12 12 12 12 13 14 14 14 14 13 13 12 12 13 12 13 14 13
9 6 10 16 15 12 10 11 13 11 8 7 9 11 8 6 6 7 7 7 10 8 5 8 10 8 8 8 12 16 15 14 13 13 13 11 10 9 8 8 8 7 7 8 8 8 10 12 12 13 12 13 12 12 12 12 12 12 12 12 12 12 12 12 12 12 12 12 12 12 13 14 14 15 15 14 15 15 14 13 12 13 13 12 13 13
9 6 7 12 12 12 10 9 10 10 8 8 9 10 9 7 7 8 6 6 9 8 7 9 10 8 7 8 14 17 15 15 14 13 12 11 10 8 7 7 7 7 7 8 8 8 10 11 12 12 12 12 12 12 12 11 11 12 11 11 12 12 12 12 12 12 12 12 12 12 13 14 14 14 15 15 15 15 15 13 12 13 14 14 14 14
7 6 6 10 9 10 10 9 10 13 11 8 9 11 10 6 5 8 7 5 7 8 7 8 8 6 3 5 11 16 15 15 14 14 11 10 10 8 7 7 7 8 8 8 7 7 9 11 12 12 12 12 12 12 12 11 11 11 12 12 12 12 13 13 13 13 13 13 13 13 14 14 14 14 15 15 15 15 14 13 12 13 14 15 15 14
6 7 7 9 10 10 12 11 9 10 13 11 8 10 12 9 7 9 8 6 6 6 6 8 8 5 3 1 8 13 15 14 15 14 12 10 10 9 8 8 8 8 8 8 7 7 9 10 10 10 11 11 11 11 11 11 11 12 12 13 13 13 14 15 15 14 14 14 14 14 15 16 16 15 14 15 15 15 14 12 12 13 14 14 14 15
2 5 8 10 10 9 8 6 2 3 9 12 10 10 11 10 9 9 8 7 6 3 3 6 6 5 3 2 5 13 15 14 14 14 14 12 10 9 9 9 9 8 8 8 8 9 9 9 8 9 10 11 11 11 11 11 12 12 13 13 14 14 15 16 15 15 15 15 15 15 16 16 17 16 16 16 15 15 14 12 11 13 15 14 14 14
1 5 8 10 9 6 7 6 2 3 7 10 10 10 11 12 12 9 6 7 7 5 5 5 5 5 3 3 6 14 16 14 13 13 15 13 10 10 10 9 9 9 8 8 8 9 9 8 9 9 10 11 12 12 12 12 12 13 13 14 14 15 16 17 16 16 16 16 16 16 16 16 17 17 17 16 15 15 14 12 12 14 15 14 14 14
3 6 8 9 9 7 7 8 8 7 8 8 8 8 8 11 13 7 4 7 7 7 8 7 5 5 5 4 9 14 16 14 13 13 14 13 11 10 9 9 9 8 9 9 8 8 8 9 10 10 11 11 12 12 13 12 12 13 13 14 15 15 17 17 17 18 18 18 18 17 17 17 17 16 16 16 16 15 14 12 12 13 14 14 14 14
3 3 5 8 11 11 11 10 7 8 9 5 5 7 5 8 12 8 5 7 7 7 9 8 3 7 8 8 11 14 15 15 13 13 13 11 11 10 9 9 9 9 10 9 7 6 7 8 10 11 11 11 12 12 12 13 13 13 14 15 16 16 17 17 18 19 19 19 19 18 18 18 17 17 17 16 16 15 14 12 11 12 13 13 12 13
3 2 2 1 5 6 6 4 1 4 10 8 7 8 5 3 7 8 7 7 6 7 8 5 7 11 11 12 12 12 13 14 13 12 12 11 10 10 10 10 10 9 9 8 6 6 7 9 11 11 11 11 12 12 12 13 14 14 15 16 17 16 17 17 18 19 19 19 19 19 18 19 18 18 17 16 16 15 14 12 10 10 11 12 11 12
5 3 4 6 6 4 5 5 3 3 9 10 9 9 6 3 4 8 7 4 6 8 7 6 11 13 13 13 13 12 12 12 12 12 11 10 10 10 11 11 11 11 10 8 6 7 8 9 10 11 11 11 12 13 13 13 14 15 16 16 17 16 16 16 18 19 19 19 19 19 20 20 19 18 18 17 16 15 14 12 10 10 10 10 11 12
6 4 2 5 9 8 6 6 5 7 10 9 8 8 6 3 4 7 3 2 3 5 4 7 10 11 13 14 12 12 12 12 12 11 11 10 10 11 11 12 12 11 10 8 7 7 8 8 9 9 11 11 12 13 13 13 14 15 16 16 17 16 16 16 17 19 19 18 19 20 20 20 19 18 18 19 18 15 13 12 10 10 11 11 12 12
2 4 4 7 10 9 6 6 7 10 11 11 10 8 6 6 5 6 6 6 4 2 5 12 15 12 9 11 12 12 12 12 12 11 11 11 11 11 12 12 11 10 10 8 7 7 7 8 8 8 10 11 12 13 13 13 13 14 15 16 17 16 15 16 17 18 18 18 18 19 20 20 19 19 18 18 18 16 13 12 11 10 11 12 12 12
1 4 6 7 7 7 6 6 7 9 12 12 11 9 8 8 8 8 6 5 5 6 9 15 16 9 6 9 13 13 11 12 12 11 11 10 10 11 11 11 11 10 9 7 7 7 7 8 8 8 9 11 11 12 12 12 13 13 14 15 16 16 16 16 17 18 19 18 18 19 20 19 19 20 19 18 18 17 15 13 12 11 10 11 11 11
3 5 5 5 5 5 4 5 9 11 12 13 11 9 7 7 6 6 5 4 3 6 11 10 8 7 7 10 12 12 12 13 12 12 11 9 9 11 11 11 10 9 8 7 6 7 7 7 8 9 9 10 11 11 12 12 12 13 14 14 14 15 16 17 17 18 19 19 18 19 19 19 20 20 19 19 19 18 17 15 13 11 10 10 10 10
6 8 6 6 6 5 4 6 7 9 9 8 7 6 5 6 7 7 7 7 6 2 6 4 5 10 12 12 13 13 13 13 11 10 9 9 9 10 11 11 10 8 8 7 5 6 6 7 7 8 9 9 10 11 11 11 12 12 13 14 13 13 15 17 17 18 20 20 19 19 20 20 20 19 19 20 20 19 18 16 14 11 9 9 9 10
8 9 7 6 5 6 7 5 4 7 8 3 2 2 2 3 6 7 8 8 7 5 5 6 10 14 13 12 13 13 12 12 11 9 8 8 8 9 10 11 9 8 8 7 6 6 7 7 7 8 9 9 10 10 10 11 11 12 12 13 13 13 14 16 17 18 20 21 20 20 20 20 20 19 20 20 20 19 19 17 15 11 7 6 7 8
9 7 5 4 5 7 7 6 6 7 4 2 1 1 2 3 7 11 11 9 7 7 10 12 14 14 12 12 13 13 14 13 12 11 10 8 7 8 10 10 8 8 7 6 6 6 7 7 8 9 9 10 10 10 10 11 11 11 12 13 14 14 14 15 16 18 19 20 21 21 21 20 20 19 20 20 20 20 19 17 15 13 9 5 3 2
9 7 5 4 5 7 7 6 5 4 3 3 2 4 5 7 10 10 9 7 6 7 10 13 13 13 14 14 13 13 15 14 12 11 10 9 8 7 9 9 8 7 7 6 6 6 7 7 8 9 9 10 10 10 11 12 11 11 12 13 14 15 15 15 16 18 19 20 21 22 21 20 20 19 19 19 19 20 19 17 15 14 12 9 8 6
5 6 6 5 3 4 6 4 3 4 4 4 4 4 4 5 4 3 4 5 4 4 8 12 13 13 14 14 14 14 13 12 11 9 8 8 7 7 9 9 8 8 7 6 6 6 6 7 8 8 8 9 10 11 12 12 12 11 12 14 14 15 16 16 16 18 19 19 20 21 20 20 20 19 18 19 19 20 19 17 15 14 12 11 11 12
2 2 5 4 1 3 6 5 4 5 4 4 6 6 3 2 1 1 3 5 4 5 9 13 14 14 14 14 14 12 9 7 7 6 6 7 7 8 10 10 10 9 7 6 7 8 8 8 8 8 9 10 11 12 12 12 13 13 14 15 15 16 17 17 17 19 20 19 19 20 19 18 18 18 19 19 19 19 18 17 15 13 12 12 14 16
5 2 2 4 3 4 6 6 5 3 2 4 8 9 5 3 2 2 3 5 6 7 11 13 13 13 13 13 13 10 6 4 5 4 5 6 8 8 10 10 11 9 8 7 8 9 9 8 8 9 10 11 12 12 12 12 13 14 15 16 16 16 17 18 18 19 19 18 18 18 18 17 18 17 18 18 18 18 17 16 15 13 12 13 16 20
4 3 2 4 5 5 5 5 3 3 3 5 9 8 4 2 1 4 5 5 8 10 11 12 12 12 12 12 11 5 0 2 6 7 8 9 10 10 11 11 10 9 8 8 8 8 9 9 10 11 12 12 12 12 12 12 13 14 15 16 16 17 18 18 17 18 18 18 18 18 17 17 17 17 17 17 16 17 17 16 15 14 13 14 17 21
4 3 1 3 5 5 5 4 4 4 4 6 7 5 3 1 3 4 3 6 10 12 11 11 12 12 11 10 7 3 5 7 11 12 11 12 12 12 12 12 10 9 9 9 9 9 9 10 11 11 11 11 11 11 12 12 13 14 14 15 17 17 17 16 16 17 18 18 18 18 18 17 16 16 17 16 15 16 17 17 17 15 13 15 17 17
4 3 2 3 3 3 4 4 4 3 3 4 5 3 1 2 2 1 3 8 12 12 12 12 11 11 11 9 8 9 10 14 16 14 13 12 12 13 13 12 11 11 11 11 10 10 10 10 11 11 11 11 11 12 13 13 14 14 15 16 17 16 15 15 15 16 18 18 18 19 19 18 16 15 15 16 16 16 17 18 18 17 14 14 17 19
1 2 4 3 1 1 4 5 3 2 3 5 6 4 0 1 3 6 7 10 12 12 13 12 11 11 12 12 13 14 15 16 15 14 13 13 13 13 13 12 11 11 11 11 10 10 10 11 11 11 11 11 12 13 13 14 15 15 16 17 17 15 15 15 15 16 17 18 19 20 20 19 19 17 14 15 16 16 17 18 19 19 17 15 19 24
3 2 3 3 1 2 5 3 1 3 5 4 3 3 4 4 5 8 9 10 11 11 11 10 10 11 13 15 16 16 15 16 15 14 13 12 12 13 12 11 11 11 11 11 10 10 10 11 12 12 12 12 13 13 13 14 14 15 16 17 16 15 15 15 15 15 17 18 19 20 19 20 22 21 19 19 20 17 17 18 17 18 18 17 20 27
4 4 1 3 4 2 3 4 3 4 6 5 5 6 7 6 6 8 10 10 10 10 9 10 11 13 14 16 17 15 14 15 14 14 13 12 12 12 11 11 12 12 12 12 11 11 12 12 13 13 13 13 13 13 14 14 14 15 15 15 15 16 16 15 15 16 16 17 18 19 18 19 22 25 25 27 28 26 24 23 21 20 20 19 21 25
4 2 1 3 6 6 7 7 6 6 7 8 7 7 8 8 8 9 10 10 10 10 10 10 12 14 14 15 15 15 14 14 14 14 13 13 13 12 12 13 13 13 14 14 13 12 13 13 14 14 14 14 14 14 14 14 15 15 14 13 14 15 15 15 16 16 16 16 16 17 17 18 21 25 27 28 30 30 28 25 24 24 24 24 25 26
3 0 1 5 7 5 4 6 7 7 8 8 8 8 9 9 9 9 9 10 11 12 12 12 14 15 14 15 15 16 16 15 14 13 12 12 13 13 13 14 14 14 15 14 13 13 13 14 14 14 14 14 14 14 14 15 15 15 13 13 13 14 15 16 16 16 16 16 15 15 17 17 20 23 27 29 30 29 27 23 21 21 21 22 24 28
3 3 4 6 5 3 5 8 8 8 8 7 7 8 8 9 10 11 11 12 13 14 14 15 16 15 14 14 16 17 16 15 14 13 12 12 13 14 14 15 15 15 14 13 13 13 14 14 14 14 14 13 13 14 14 15 15 15 14 14 13 13 14 16 17 17 16 16 15 15 15 16 17 19 22 28 30 30 28 26 23 22 21 21 21 24
3 5 5 6 7 7 7 9 9 9 8 6 7 8 8 9 12 13 14 15 16 16 16 17 17 17 16 17 17 17 16 15 15 15 13 13 14 16 16 16 16 15 14 13 13 13 14 14 14 14 14 14 13 14 15 15 15 15 15 15 14 14 14 15 16 17 17 17 16 16 15 14 15 14 16 20 24 27 27 26 24 22 23 22 21 20
4 6 6 7 7 5 7 10 10 7 6 6 8 10 11 11 14 15 16 16 16 16 17 17 18 19 19 19 19 17 15 15 16 17 16 15 16 17 16 16 16 15 14 13 13 14 14 14 14 14 15 14 14 14 15 16 15 15 15 15 15 15 15 14 14 16 17 17 17 16 15 14 14 14 13 13 15 18 21 24 25 24 22 21 20 18
2 4 4 3 2 5 10 12 9 6 8 9 10 11 11 12 14 15 16 16 16 17 18 17 17 18 18 19 20 19 17 17 18 18 17 17 17 17 16 15 15 14 14 14 14 14 14 14 14 14 14 14 14 14 15 16 16 16 16 16 15 15 16 15 15 15 16 16 16 15 15 15 14 14 14 13 12 12 14 18 22 24 23 21 20 19
Wind_Direction
186 195 202 205 201 196 199 204 212 217 191 181 184 197 193 186 192 167 137 137 176 201 186 185 189 127 85 66 45 38 96 171 227 222 227 210 187 174 169 169 136 115 108 94 91 87 77 59 65 81 96 97 85 59 89 133 157 153 154 170 174 178 186 199 212 242 261 259 256 252 248 251 252 252 248 243 241 240 239 233 228 215 197 203 219 229
191 210 206 201 205 196 196 204 202 195 190 186 191 195 193 194 182 162 150 140 173 221 178 166 165 110 80 71 59 43 98 74 333 281 261 241 208 185 172 167 139 120 105 87 81 75 74 77 88 102 110 111 113 121 143 155 161 135 120 145 158 170 182 188 193 244 258 258 262 258 255 259 257 252 248 246 243 238 235 228 220 212 206 210 220 233
198 215 207 200 204 194 189 197 193 191 196 195 199 195 194 189 156 144 147 132 174 228 165 166 175 117 91 81 76 69 78 60 10 352 345 320 230 181 156 153 145 123 91 86 78 71 86 99 107 111 113 123 133 146 142 129 130 122 126 151 163 165 170 174 180 222 238 248 264 261 254 254 253 253 248 250 250 239 230 225 218 211 209 211 217 225
198 211 205 194 190 183 179 190 198 200 203 203 200 197 195 180 159 156 158 135 144 218 162 169 175 127 120 114 95 82 82 88 72 76 66 52 63 76 75 63 66 71 57 81 98 97 103 108 110 110 117 130 119 99 92 99 118 132 141 153 152 151 153 159 169 206 235 257 267 262 265 266 266 270 265 263 261 241 229 230 227 219 211 212 220 223
208 203 187 177 179 186 185 189 198 200 200 204 201 202 194 181 182 163 146 141 129 146 167 171 171 158 159 150 120 101 104 113 106 104 94 82 85 81 73 59 56 63 63 85 103 108 109 106 104 104 106 96 68 57 58 60 75 98 115 125 126 130 125 121 124 155 247 270 276 278 285 278 270 272 266 259 253 232 228 234 232 224 215 216 228 229
213 179 164 178 187 193 191 189 197 200 196 196 202 214 194 177 185 147 139 160 167 172 185 192 198 177 165 155 130 124 128 121 106 101 92 81 85 80 71 65 64 71 79 92 105 109 108 104 103 100 84 58 45 46 51 51 59 70 83 91 91 95 93 81 83 132 263 273 285 288 286 278 265 259 254 248 239 220 218 223 224 219 212 219 232 230
199 161 170 189 188 191 194 194 196 199 203 194 192 207 201 179 186 162 161 186 198 178 177 200 228 187 165 159 132 135 134 120 105 96 91 78 73 72 68 66 69 74 83 93 102 100 93 91 92 84 66 48 39 44 51 54 62 66 71 76 75 79 75 63 55 10 300 273 264 267 280 285 279 272 267 259 245 226 216 214 215 209 202 216 234 235
174 166 183 190 186 191 197 198 193 196 212 191 173 191 201 192 190 178 184 204 204 135 152 195 235 228 180 159 138 147 134 118 109 97 97 88 78 76 73 71 73 77 85 90 89 82 73 74 80 77 68 61 54 56 57 56 59 58 61 62 63 76 87 83 74 65 65 214 221 239 257 267 270 273 275 273 257 237 223 217 212 204 205 218 227 229
166 178 184 186 190 196 200 197 184 193 211 157 157 188 202 204 205 196 199 210 200 169 181 195 216 230 180 145 145 159 140 118 111 102 98 90 80 78 78 77 78 78 81 84 81 77 74 74 77 76 73 69 64 63 61 58 57 55 53 50 48 55 68 76 77 86 125 220 228 247 253 256 261 266 273 274 263 250 239 237 228 209 210 215 215 220
170 189 187 187 196 197 198 190 175 192 207 127 151 183 193 206 220 217 216 213 190 208 215 189 194 219 179 146 163 171 150 123 113 108 99 88 79 78 78 78 80 78 77 79 78 75 72 68 67 70 70 65 62 61 59 58 56 54 50 44 41 36 30 24 13 358 323 272 253 255 255 258 260 261 265 265 262 259 249 244 237 218 214 216 217 222
160 184 193 196 204 197 183 167 170 189 182 131 163 177 177 197 216 221 230 229 201 214 222 188 189 215 201 160 164 154 137 126 126 123 107 95 85 81 79 76 76 75 74 74 71 66 62 59 57 59 59 57 57 56 54 53 49 46 41 33 31 28 17 5 354 337 316 289 269 260 258 263 265 261 260 256 255 256 249 245 237 224 222 221 222 225
165 180 193 197 210 198 168 152 166 179 167 169 186 183 180 185 197 208 211 220 218 217 211 181 186 217 219 170 148 129 123 121 129 126 110 100 92 84 79 75 72 71 72 69 64 57 53 53 51 49 47 46 47 46 44 44 41 38 33 24 21 21 11 357 343 327 315 301 285 274 269 274 276 270 263 255 251 250 248 246 239 228 226 228 230 231
182 190 185 185 202 201 182 168 167 175 182 196 196 186 187 179 184 204 201 203 217 211 182 167 185 213 196 125 134 136 123 104 106 112 109 102 94 87 79 74 71 68 68 65 60 54 48 47 47 45 42 39 38 36 35 36 34 33 29 22 17 12 4 355 341 328 318 307 299 292 286 285 284 276 267 260 254 252 250 248 241 232 226 228 234 235
182 188 187 188 190 200 202 187 176 183 188 197 197 188 191 183 183 198 197 196 205 191 145 159 189 196 136 119 134 131 111 100 102 103 105 101 94 89 82 78 74 68 65 61 57 52 46 44 43 42 40 38 35 30 28 30 28 25 22 17 12 3 355 349 341 334 327 315 306 299 292 288 284 278 268 258 253 251 248 244 239 236 230 229 233 234
185 186 188 193 186 189 204 205 186 182 185 196 203 199 200 196 189 196 199 199 198 179 141 160 197 193 157 139 133 124 111 106 108 107 106 102 97 92 85 80 75 70 65 61 56 52 48 45 41 38 35 32 30 26 24 22 20 18 15 9 2 352 345 342 338 336 332 320 308 298 291 286 282 278 270 263 259 255 251 243 234 229 225 227 232 233
196 193 177 187 190 184 198 211 193 180 182 193 204 207 209 210 197 184 201 210 186 169 154 166 188 99 119 127 129 132 121 114 117 115 109 101 97 92 82 76 73 71 68 59 52 48 46 43 39 35 29 24 19 18 17 16 14 12 9 3 355 349 344 341 338 331 323 314 306 298 291 286 281 277 274 272 269 263 257 251 240 230 222 222 230 233
198 183 162 172 185 186 194 201 190 189 186 180 200 204 197 223 212 169 117 69 141 171 167 170 155 114 128 146 151 151 132 123 125 115 105 97 93 88 78 74 71 68 66 61 56 49 43 39 35 30 25 21 14 8 8 7 8 6 3 358 352 349 346 343 339 328 316 308 303 298 291 287 283 279 277 273 269 262 256 254 249 243 232 223 227 232
199 173 157 173 180 179 191 191 189 205 203 180 197 190 162 208 230 192 177 158 181 194 175 180 182 164 170 165 161 165 148 135 131 116 110 105 97 90 80 75 71 68 66 64 59 53 45 38 32 28 24 21 15 8 4 1 2 1 358 354 348 346 343 341 336 324 314 306 301 299 295 290 286 283 279 273 268 263 256 251 246 246 243 232 227 230
204 185 160 183 183 164 179 192 189 207 228 219 201 179 173 191 194 201 203 184 195 199 164 178 186 184 193 173 167 176 163 146 139 124 120 117 109 103 94 87 82 80 74 67 60 50 44 38 32 29 26 22 18 12 6 1 360 357 354 352 346 341 336 333 329 321 315 312 307 304 298 294 291 287 283 278 274 267 259 252 245 244 245 240 230 226
206 214 166 179 179 161 174 195 190 188 207 230 210 183 195 209 191 196 202 194 202 196 165 177 185 197 203 169 171 178 162 149 142 127 124 120 112 109 103 98 90 81 71 63 60 52 44 40 35 33 28 23 18 13 8 2 358 356 353 351 346 340 335 330 327 322 318 318 316 312 305 298 293 289 286 283 280 276 267 256 249 245 242 240 231 222
195 222 174 161 163 168 182 196 197 186 184 203 204 187 192 201 191 194 199 213 220 202 178 178 185 190 167 139 171 170 151 146 138 124 125 119 112 110 103 98 85 73 69 62 60 54 47 44 41 36 28 22 17 12 8 3 359 356 352 350 348 345 341 335 330 325 321 321 321 318 314 306 298 292 289 286 285 283 273 260 253 246 239 238 234 227
194 211 175 159 173 189 189 188 197 198 189 190 197 193 190 189 188 188 189 205 226 217 193 190 187 158 90 119 173 153 140 143 137 126 128 124 119 116 103 95 85 76 73 67 60 55 51 48 41 31 23 20 18 13 9 7 4 360 354 352 351 349 346 340 333 329 326 325 325 324 318 312 306 299 293 290 290 287 277 264 256 249 241 238 238 233
201 215 180 170 182 179 161 159 206 231 198 196 202 199 190 190 197 194 185 183 197 208 189 207 201 145 78 342 147 137 136 141 139 133 131 128 124 120 110 99 90 81 75 70 66 63 58 49 37 28 22 22 21 16 13 11 6 360 354 351 350 348 346 341 336 333 331 330 330 328 323 317 312 307 301 296 293 290 282 268 260 258 249 241 240 237
178 214 185 174 173 148 120 131 178 215 202 205 204 197 194 194 200 209 198 176 180 189 188 211 210 154 104 24 110 131 135 136 139 137 132 129 125 120 113 104 93 85 78 75 71 64 57 48 40 32 25 24 23 18 15 11 5 360 356 352 350 347 345 343 340 338 337 335 334 332 328 323 318 313 307 302 298 296 290 277 264 263 258 248 243 241
196 201 184 176 169 159 157 166 179 190 203 211 195 190 204 197 191 197 193 181 189 198 200 213 202 140 118 112 125 129 131 132 135 132 128 128 127 120 112 103 96 89 84 79 67 52 46 46 41 33 27 26 24 18 13 11 7 2 358 354 351 348 346 345 343 341 340 338 336 334 331 328 323 318 313 308 304 299 294 286 272 265 263 255 249 249
190 192 188 193 184 181 184 181 179 182 187 195 178 178 199 197 188 183 179 194 196 187 205 224 178 119 125 135 134 131 130 129 125 121 120 122 124 119 111 102 95 88 83 74 57 42 46 47 41 33 27 25 21 12 8 12 11 4 0 356 353 349 347 346 345 343 341 340 339 337 333 330 326 322 317 311 306 301 294 288 279 269 263 255 251 254
154 81 46 156 182 181 172 148 95 180 173 169 165 168 171 183 194 197 201 205 184 172 202 208 129 133 150 150 141 137 134 129 124 119 117 118 118 114 107 102 95 89 82 69 45 39 51 48 38 31 23 18 16 9 8 15 13 6 2 357 354 352 349 348 347 345 343 342 341 339 336 333 329 324 320 315 309 305 298 289 280 270 258 249 244 246
169 149 62 56 69 66 77 80 55 149 157 155 154 154 149 125 189 204 206 188 163 174 196 166 136 145 159 155 145 140 134 128 125 121 118 118 116 111 107 101 95 90 84 70 45 38 47 44 34 25 17 13 13 8 9 15 14 9 5 0 358 356 352 351 349 348 346 343 342 341 338 335 333 329 326 323 316 308 301 295 285 272 260 248 241 237
175 155 90 83 83 68 65 76 85 103 107 108 116 128 137 134 171 183 164 87 163 199 198 150 135 133 144 148 141 133 128 123 119 117 116 115 114 112 108 101 95 91 85 73 50 39 44 41 29 19 12 10 9 8 8 10 11 10 8 5 3 359 355 353 351 350 350 347 345 342 338 337 337 335 333 331 327 316 304 298 289 277 268 256 246 243
173 126 129 119 92 65 59 73 92 108 104 94 85 87 106 105 95 110 92 59 72 81 98 115 106 92 113 132 124 119 119 115 113 113 113 115 115 112 108 103 99 93 86 76 56 44 45 40 29 17 11 8 6 6 5 3 4 6 6 7 6 2 358 355 353 353 353 350 347 343 340 340 342 342 340 339 335 329 316 303 291 281 274 265 256 254
226 144 153 143 99 65 65 84 100 113 106 95 83 72 87 97 83 84 83 59 68 92 107 114 107 91 93 113 113 115 116 113 113 113 112 114 116 113 109 106 102 96 90 80 57 45 46 40 28 18 12 7 3 2 2 359 360 2 4 7 9 7 3 359 357 358 357 354 350 347 345 345 345 346 347 347 343 338 329 315 299 284 276 273 264 256
159 144 169 188 144 96 90 113 117 116 106 93 79 61 64 88 84 75 68 33 31 119 128 127 126 131 134 123 118 119 119 115 113 113 112 113 116 115 112 108 103 99 97 85 54 40 42 36 24 14 8 3 2 2 1 358 359 2 3 3 5 7 5 4 2 1 0 358 354 352 350 349 348 349 351 351 350 346 340 329 313 294 278 275 270 254
145 144 171 194 156 121 138 143 131 137 134 105 70 44 47 87 100 91 75 43 12 79 137 131 114 126 135 133 124 120 118 113 108 110 112 113 116 115 109 106 103 99 99 91 63 44 38 28 18 12 6 2 1 0 0 0 1 1 0 360 1 4 7 9 8 5 4 1 358 357 355 352 351 352 352 353 353 352 349 344 335 317 289 278 276 261
149 156 166 178 153 138 150 158 172 182 171 133 56 20 21 76 104 106 92 64 31 32 71 86 108 125 134 132 125 120 113 106 102 101 103 110 117 112 103 102 101 99 97 87 66 49 36 24 16 13 10 4 0 360 2 4 4 3 3 5 6 6 7 9 10 9 7 3 1 1 359 356 356 356 355 356 357 357 356 353 350 341 314 288 280 266
152 157 148 148 144 137 145 166 189 189 170 74 39 147 105 87 106 106 94 75 61 74 95 106 118 125 122 117 118 114 108 105 100 93 91 95 104 107 105 103 100 99 93 75 56 44 33 25 18 15 12 6 2 6 9 8 6 7 10 12 13 12 12 13 13 11 7 5 4 4 2 0 0 360 0 1 2 2 1 357 357 359 359 358 356 294
155 150 123 114 124 134 157 181 178 155 121 93 113 129 121 123 127 116 92 72 71 92 114 119 117 115 112 112 113 112 110 106 93 82 80 82 87 99 105 102 98 94 86 66 50 39 30 24 18 12 8 7 8 13 14 9 7 11 16 18 19 19 17 16 16 12 8 6 5 5 4 3 3 4 5 5 6 6 5 360 359 8 18 28 44 66
157 153 133 120 125 153 157 142 112 135 151 149 153 156 139 138 146 121 88 93 100 111 127 129 123 119 119 119 119 121 120 106 85 71 72 78 84 94 96 96 98 96 87 72 59 52 42 33 24 15 12 15 18 17 13 11 12 18 23 23 23 23 21 20 19 15 10 7 6 5 6 6 7 9 11 11 11 9 8 5 4 11 26 45 62 73
73 149 150 142 176 196 156 132 140 169 170 152 151 153 147 141 159 108 112 123 131 138 140 138 131 127 128 128 131 141 142 110 84 78 87 92 98 100 98 99 103 101 95 84 73 64 54 43 35 30 28 28 28 22 17 17 19 23 27 26 23 23 22 22 20 17 12 8 6 7 8 9 12 14 15 16 16 12 11 11 11 14 30 52 69 76
72 71 140 142 152 183 177 168 167 158 108 120 141 144 147 149 155 212 191 145 137 148 147 141 135 134 137 138 141 155 165 128 108 119 122 117 114 110 107 105 104 103 97 86 77 69 63 58 52 46 41 37 30 23 20 22 25 27 29 27 23 23 22 20 19 18 14 10 8 9 11 14 16 16 17 20 20 17 16 17 19 25 37 53 68 74
101 115 162 160 155 174 193 180 141 82 69 121 140 143 142 133 208 228 213 155 142 152 149 141 137 136 139 143 145 148 132 125 141 143 135 128 121 112 109 107 104 100 94 86 81 78 75 68 59 52 45 36 27 20 20 26 30 31 30 28 25 24 21 18 18 20 19 17 15 13 13 16 19 19 21 22 23 23 23 23 24 31 41 53 65 73
107 110 155 181 164 169 190 174 118 81 101 131 138 134 131 184 224 224 186 130 138 146 143 139 136 133 135 143 142 100 55 97 126 132 130 127 119 110 109 108 101 93 88 85 84 83 78 69 61 57 49 39 31 27 29 32 34 34 32 29 27 24 19 15 19 25 26 23 22 20 18 16 18 24 27 26 27 29 30 31 31 32 41 54 62 68
127 128 152 184 166 166 191 175 135 96 99 135 140 130 169 221 196 129 106 126 136 138 136 134 130 128 126 121 114 109 103 108 118 125 125 122 117 113 112 108 102 96 92 88 84 82 80 74 65 59 52 44 41 40 40 40 40 38 35 32 27 21 17 17 22 29 32 30 28 27 24 20 22 31 33 30 32 36 38 42 42 39 42 53 58 60
73 183 168 143 103 160 175 175 165 127 128 159 164 152 103 337 101 115 126 131 129 129 131 128 122 122 121 113 112 116 116 115 118 120 119 118 116 112 108 101 100 100 95 90 85 82 82 77 66 59 54 49 46 44 42 42 41 38 36 34 28 20 18 21 24 31 36 36 34 32 30 28 31 37 38 37 39 40 42 46 48 47 48 50 56 60
11 313 171 121 18 237 182 158 113 105 117 136 152 115 80 67 111 132 132 125 125 128 127 121 119 123 124 120 120 120 119 119 120 118 116 115 111 104 96 91 93 94 91 88 82 79 80 76 68 63 60 54 50 46 42 41 39 36 35 34 29 24 24 25 26 32 38 40 40 39 36 35 38 42 47 55 55 49 45 45 43 45 48 48 55 61
30 3 31 72 47 39 80 88 103 114 102 84 68 81 94 101 119 130 128 125 129 129 124 122 124 125 125 124 124 122 121 122 121 120 118 113 105 96 88 88 91 92 94 93 87 84 83 77 72 68 64 58 53 48 44 39 37 35 35 33 29 28 29 29 30 35 39 40 43 43 40 40 44 48 54 63 66 64 61 58 53 50 51 51 55 61
62 29 356 94 108 95 71 81 112 113 92 82 78 86 99 108 117 122 123 125 127 125 124 123 123 125 128 127 125 122 123 124 121 119 117 112 106 100 95 95 97 96 98 96 91 87 81 74 70 67 62 57 51 47 44 40 38 37 35 32 32 32 33 34 35 37 40 41 43 45 44 44 48 52 56 61 66 68 66 62 59 57 56 55 56 58
111 170 86 126 148 148 90 99 115 106 98 98 96 97 102 107 115 119 121 125 124 120 119 120 122 127 128 126 125 124 123 123 121 119 117 113 109 106 103 103 102 99 97 94 87 82 77 70 66 62 58 54 49 46 45 42 41 40 36 33 34 34 35 39 40 40 41 42 43 45 46 48 50 53 56 58 60 62 60 57 55 52 50 51 54 58
147 179 150 131 137 119 100 115 112 93 92 101 105 110 111 110 114 118 120 123 122 117 118 122 125 127 125 124 125 124 123 124 123 121 120 118 116 115 112 109 105 100 95 89 82 79 75 70 66 62 59 57 52 49 47 44 42 41 38 36 34 33 37 43 44 43 43 43 45 46 47 50 51 52 55 57 58 58 57 55 55 52 50 52 56 59
137 169 149 120 113 100 107 128 123 99 91 93 98 109 117 119 121 121 121 123 122 119 120 122 121 122 124 125 125 124 124 126 127 126 126 125 123 120 115 111 107 102 97 91 84 80 78 74 71 68 66 64 58 53 50 48 46 45 43 40 36 35 39 45 46 46 45 44 46 46 45 49 52 51 53 57 59 58 55 55 56 57 57 58 60 64
163 154 136 130 140 144 149 156 151 130 118 117 113 117 122 124 124 123 123 124 123 122 123 123 121 122 123 125 127 127 126 128 129 129 127 125 123 120 118 116 113 108 104 99 92 86 83 80 77 74 71 68 63 57 54 52 50 47 44 42 40 38 40 44 46 47 46 44 43 42 44 48 50 52 53 55 59 60 57 55 56 57 58 58 60 65
165 153 144 138 141 140 147 156 158 133 121 125 124 123 125 126 125 123 124 125 124 124 124 124 124 125 125 126 128 128 126 128 130 128 124 122 123 124 125 124 119 112 107 101 93 88 85 82 79 76 72 70 66 62 58 55 51 48 45 43 43 42 41 43 45 45 46 45 38 34 39 46 48 51 55 55 56 61 62 59 57 55 55 57 62 66